Showing default

ASIASAT 4, 27718

Orbit data source: Space-Track

ASIASAT 4, 27718 is a payload satellite owned by Asiasat (HK) in GEO that was launched on Sat, 12 Apr 2003 UTC via an ATLAS 3B launch vehicle from the Air Force Eastern Test Range (AFETR). Payload-class satellites include a variety of spacecraft equipped with specific instruments for various scientific and technological missions. These include communications satellites like Starlink; space stations such as the ISS; scientific satellites like the Hubble; Earth observation satellites from companies like Planet Labs, Umbra, and HawkEye 360; GPS; miniature CubeSats for education and research; and military/defense satellites.

Not visible in the next 10 days
Identifier
27718, 2003-014A
Orbit
GEO
Country
Flag of ACAC
Related business
Manufacturer
Boeing/ES
Mission
Operational Commercial Communications
Bus & Motor
HS-601HP, R-4D-14-350
Mass
4,137 kg wet, ~2,000 kg dry
Launch date (UTC)
2003-04-12 (23 years ago)
Launch vehicle
ATLAS 3B
Launch site
Air Force Eastern Test Range (AFETR)
Object type
Payload
Rocket body
Debris
Shape & HBR
Box + 2 Pan, 13.1 m
Radar Cross Section
46.266 m², Large (>1 m²)

Expand to show TLE details & history
Last TLE update: 18 hours ago

TLE from 18 hours ago
0 ASIASAT 4
1 27718U 03014A   26201.93272704 -.00000225  00000-0  00000-0 0  9998
2 27718   4.7870  75.3179 0002792  45.8628 300.8491  1.00271271 45632
Epoch: 2026-07-20T22:23Z
TLE epoch observation values (Epoch: 2026-07-20T22:23:07.616Z)
Latitude
-1.1025°
Longitude
147.56855°
Altitude
35,780.32 km
Speed
3.075 km/s
True Right ascension
04h 08m 14s
True Declination
-1° 06' 05"
Sunlit
Object was in daylight at epoch
Visualization orbit readout
Latitude
Unknown
Longitude
Unknown
Altitude
Unknown
Speed
Unknown
Apparent Right ascension
Unknown
Apparent Declination
Unknown
Sunlit
N/A
Visualization observer readout
Local Sidereal Time
05:45:45
Azimuth
Unknown
Elevation
Unknown
Doppler factor
Unknown
Orbital elements
Apogee altitude
35,799.571 km
Perigee altitude
35,776.026 km
Semi-major axis
42,165.936 km
Eccentricity
0.00028
Inclination
4.787°
RAAN
75.3179°
Arg. of periapsis
45.8628°
True anomaly
300.82163°
Mean anomaly
300.8491°
Eccentric anomaly
300.83536°
Mean motion
0.25067 °/min
Orbital period
1,436.16 mins
BSTAR
0
Loading maneuver chart data...
Computing Atmospheric mass density...
Loading historical data...
Loading historical data...
Loading historical data...
Loading historical data...
Loading historical data...
Loading historical data...
Loading historical data...
Other satellites on launch #14 in the year 2003 (2003-04-12 UTC)

Documentation

Showing up to 5 results
|